SAS852 EKCH-LFMN

Flight info

Callsign SAS852
Flight time 2h 0m
Altitude 36000
Route NEXEN T503 GIMRU DCT MICOS DCT OTMON DCT BOMBI DCT GIGET DCT ABUKA DCT KRH DCT NATOR/N0450F370 DCT TRA DCT RIPUS DCT GERSA DCT SOSON DCT ODINA DCT ENOBA Z185 ASBOP/N0386F190 Z185 BORDI
Aircraft A320/M-SDE3FGHIRWY/LB1

Departure

Time 2026-04-22 16:41
Airport Copenhagen Kastrup Airport (EKCH)

Arrival

Time 2026-04-22 18:41
Airport Nice-Côte d'Azur Airport (LFMN)
Time Latitude Longitude Altitude Speed Heading
2026-04-22 16:09 55.62657 12.64916 27 ft 0 kts 101°
2026-04-22 16:28 55.62660 12.64891 26 ft 4 kts 105°
2026-04-22 16:29 55.62669 12.64846 26 ft 4 kts 118°
2026-04-22 16:29 55.62684 12.64810 26 ft 4 kts 149°
2026-04-22 16:29 55.62701 12.64801 27 ft 1 kts 190°
2026-04-22 16:29 55.62705 12.64802 27 ft 0 kts 190°
2026-04-22 16:32 55.62695 12.64799 26 ft 3 kts 190°
2026-04-22 16:32 55.62660 12.64787 25 ft 7 kts 190°
2026-04-22 16:32 55.62601 12.64773 24 ft 10 kts 184°
2026-04-22 16:32 55.62520 12.64775 24 ft 13 kts 178°
2026-04-22 16:33 55.62420 12.64780 25 ft 15 kts 178°
2026-04-22 16:33 55.62309 12.64787 24 ft 17 kts 178°
2026-04-22 16:33 55.62193 12.64754 26 ft 18 kts 213°
2026-04-22 16:33 55.62123 12.64670 26 ft 19 kts 214°
2026-04-22 16:34 55.62007 12.64534 24 ft 21 kts 208°
2026-04-22 16:34 55.61856 12.64518 24 ft 22 kts 167°
2026-04-22 16:34 55.61739 12.64569 24 ft 14 kts 170°
2026-04-22 16:34 55.61640 12.64527 25 ft 16 kts 212°
2026-04-22 16:35 55.61542 12.64412 24 ft 18 kts 213°
2026-04-22 16:35 55.61431 12.64283 24 ft 20 kts 213°
2026-04-22 16:35 55.61306 12.64142 24 ft 22 kts 212°
2026-04-22 16:35 55.61170 12.63984 25 ft 24 kts 213°
2026-04-22 16:36 55.61025 12.63815 24 ft 26 kts 213°
2026-04-22 16:36 55.60877 12.63645 24 ft 16 kts 213°
2026-04-22 16:36 55.60799 12.63594 24 ft 12 kts 168°
2026-04-22 16:36 55.60748 12.63680 24 ft 3 kts 129°
2026-04-22 16:37 55.60746 12.63685 24 ft 0 kts 129°
2026-04-22 16:38 55.60731 12.63717 26 ft 7 kts 129°
2026-04-22 16:39 55.60696 12.63806 26 ft 10 kts 112°
2026-04-22 16:39 55.60708 12.63915 29 ft 10 kts 43°
2026-04-22 16:39 55.60718 12.63931 27 ft 0 kts 39°
2026-04-22 16:40 55.60777 12.64017 27 ft 39 kts 40°
2026-04-22 16:40 55.61840 12.65631 46 ft 147 kts 29°
2026-04-22 16:41 55.62573 12.66837 571 ft 140 kts 38°
2026-04-22 16:41 55.63300 12.68020 925 ft 147 kts 33°
2026-04-22 16:41 55.64078 12.69224 1294 ft 156 kts 35°
2026-04-22 16:41 55.64971 12.70575 1396 ft 185 kts 34°
2026-04-22 16:42 55.66031 12.72135 1630 ft 210 kts 33°
2026-04-22 16:42 55.67224 12.73874 1961 ft 234 kts 34°
2026-04-22 16:42 55.68521 12.75783 2614 ft 247 kts 34°
2026-04-22 16:42 55.69669 12.78118 3501 ft 260 kts 56°
2026-04-22 16:43 55.70181 12.81251 4424 ft 273 kts 83°
2026-04-22 16:43 55.69846 12.84597 5349 ft 283 kts 111°
2026-04-22 16:43 55.68648 12.87405 6239 ft 293 kts 140°
2026-04-22 16:43 55.66822 12.89050 7077 ft 298 kts 159°
2026-04-22 16:44 55.64862 12.90295 7908 ft 301 kts 160°
2026-04-22 16:44 55.62802 12.91075 8725 ft 306 kts 177°
2026-04-22 16:44 55.60680 12.90769 9573 ft 308 kts 194°
2026-04-22 16:44 55.58684 12.89406 10373 ft 309 kts 212°
2026-04-22 16:45 55.56956 12.87088 10844 ft 322 kts 227°
2026-04-22 16:45 55.55345 12.84146 11060 ft 345 kts 229°
2026-04-22 16:45 55.53628 12.80975 11272 ft 366 kts 228°
2026-04-22 16:45 55.51841 12.77684 11857 ft 374 kts 228°
2026-04-22 16:46 55.50072 12.74287 12579 ft 379 kts 230°
2026-04-22 16:46 55.48349 12.70743 13325 ft 382 kts 231°
2026-04-22 16:46 55.46645 12.67107 14071 ft 387 kts 232°
2026-04-22 16:46 55.44931 12.63413 14753 ft 391 kts 232°
2026-04-22 16:47 55.43200 12.59689 15434 ft 395 kts 231°
2026-04-22 16:47 55.41443 12.55945 16096 ft 399 kts 231°
2026-04-22 16:47 55.39655 12.52180 16752 ft 403 kts 231°
2026-04-22 16:47 55.37841 12.48396 17418 ft 407 kts 230°
2026-04-22 16:48 55.35999 12.44579 18087 ft 411 kts 230°
2026-04-22 16:48 55.34137 12.40740 18722 ft 415 kts 230°
2026-04-22 16:48 55.32254 12.36861 19327 ft 419 kts 230°
2026-04-22 16:48 55.30356 12.32949 19957 ft 423 kts 230°
2026-04-22 16:49 55.28442 12.29001 20596 ft 427 kts 230°
2026-04-22 16:49 55.26513 12.25019 21223 ft 430 kts 229°
2026-04-22 16:49 55.24565 12.21000 21817 ft 434 kts 229°
2026-04-22 16:49 55.22603 12.16958 22345 ft 439 kts 229°
2026-04-22 16:50 55.20549 12.12970 22871 ft 443 kts 223°
2026-04-22 16:50 55.18178 12.09507 23446 ft 445 kts 214°
2026-04-22 16:50 55.15671 12.06326 24046 ft 446 kts 214°
2026-04-22 16:50 55.13151 12.03122 24538 ft 449 kts 214°
2026-04-22 16:51 55.10616 11.99892 24974 ft 453 kts 214°
2026-04-22 16:51 55.08062 11.96633 25422 ft 457 kts 213°
2026-04-22 16:51 55.05481 11.93343 25840 ft 461 kts 213°
2026-04-22 16:51 55.02883 11.90036 26250 ft 465 kts 213°
2026-04-22 16:52 55.00250 11.86688 26662 ft 468 kts 212°
2026-04-22 16:52 54.97615 11.83349 27051 ft 472 kts 212°
2026-04-22 16:52 54.94988 11.80028 27460 ft 475 kts 212°
2026-04-22 16:52 54.92313 11.76651 27979 ft 475 kts 211°
2026-04-22 16:53 54.89644 11.73278 28511 ft 474 kts 211°
2026-04-22 16:53 54.86970 11.69911 29027 ft 475 kts 210°
2026-04-22 16:53 54.84292 11.66548 29533 ft 475 kts 210°
2026-04-22 16:53 54.81613 11.63192 30036 ft 475 kts 209°
2026-04-22 16:54 54.78929 11.59837 30506 ft 476 kts 209°
2026-04-22 16:54 54.76251 11.56492 30933 ft 476 kts 209°
2026-04-22 16:54 54.73565 11.53138 31359 ft 476 kts 208°
2026-04-22 16:54 54.70879 11.49787 31839 ft 476 kts 208°
2026-04-22 16:55 54.68196 11.46442 32312 ft 475 kts 208°
2026-04-22 16:55 54.65517 11.43115 32756 ft 475 kts 208°
2026-04-22 16:55 54.62832 11.39788 33189 ft 475 kts 207°
2026-04-22 16:55 54.60145 11.36469 33617 ft 475 kts 207°
2026-04-22 16:56 54.57456 11.33155 34063 ft 474 kts 207°
2026-04-22 16:56 54.54771 11.29853 34488 ft 474 kts 207°
2026-04-22 16:56 54.52083 11.26562 34877 ft 473 kts 207°
2026-04-22 16:56 54.49397 11.23286 35272 ft 473 kts 208°
2026-04-22 16:57 54.46719 11.20032 35717 ft 471 kts 209°
2026-04-22 16:57 54.44045 11.16792 36128 ft 470 kts 209°
2026-04-22 16:57 54.41374 11.13563 36274 ft 471 kts 209°
2026-04-22 16:58 54.36857 11.08126 36299 ft 483 kts 209°
2026-04-22 16:58 54.32940 11.04650 36307 ft 475 kts 192°
2026-04-22 16:58 54.29771 11.02778 36304 ft 476 kts 192°
2026-04-22 16:59 54.23487 10.99139 36316 ft 477 kts 193°
2026-04-22 16:59 54.17196 10.95534 36303 ft 477 kts 193°
2026-04-22 17:00 54.10913 10.91916 36308 ft 477 kts 193°
2026-04-22 17:00 54.01480 10.86479 36324 ft 477 kts 193°
2026-04-22 17:01 53.95230 10.82906 36342 ft 477 kts 193°
2026-04-22 17:01 53.88931 10.79309 36343 ft 478 kts 193°
2026-04-22 17:02 53.82636 10.75727 36340 ft 478 kts 193°
2026-04-22 17:02 53.76333 10.72160 36364 ft 478 kts 194°
2026-04-22 17:03 53.70029 10.68595 36353 ft 477 kts 194°
2026-04-22 17:03 53.63735 10.65038 36346 ft 477 kts 194°
2026-04-22 17:04 53.57442 10.61517 36344 ft 477 kts 194°
2026-04-22 17:04 53.51147 10.58007 36350 ft 476 kts 194°
2026-04-22 17:05 53.44856 10.54495 36348 ft 476 kts 194°
2026-04-22 17:05 53.38568 10.50983 36348 ft 476 kts 194°
2026-04-22 17:06 53.32276 10.47493 36343 ft 476 kts 194°
2026-04-22 17:06 53.25981 10.44013 36356 ft 477 kts 195°
2026-04-22 17:07 53.19683 10.40550 36346 ft 477 kts 195°
2026-04-22 17:07 53.13374 10.37095 36341 ft 477 kts 195°
2026-04-22 17:08 53.07067 10.33643 36341 ft 477 kts 195°
2026-04-22 17:08 53.00756 10.30196 36339 ft 477 kts 195°
2026-04-22 17:09 52.94440 10.26754 36343 ft 477 kts 194°
2026-04-22 17:09 52.88124 10.23328 36338 ft 478 kts 194°
2026-04-22 17:10 52.81847 10.19941 36344 ft 478 kts 194°
2026-04-22 17:10 52.75527 10.16537 36338 ft 478 kts 195°
2026-04-22 17:11 52.69198 10.13131 36341 ft 478 kts 195°
2026-04-22 17:11 52.62871 10.09734 36334 ft 478 kts 195°
2026-04-22 17:12 52.56536 10.06342 36355 ft 479 kts 195°
2026-04-22 17:12 52.50200 10.02963 36346 ft 479 kts 195°
2026-04-22 17:13 52.43853 9.99595 36340 ft 479 kts 195°
2026-04-22 17:13 52.37501 9.96247 36358 ft 480 kts 195°
2026-04-22 17:14 52.31148 9.92896 36365 ft 480 kts 196°
2026-04-22 17:14 52.24789 9.89530 36350 ft 480 kts 196°
2026-04-22 17:15 52.18384 9.86159 36347 ft 481 kts 196°
2026-04-22 17:15 52.12015 9.82829 36347 ft 481 kts 196°
2026-04-22 17:16 52.05678 9.79543 36349 ft 481 kts 196°
2026-04-22 17:16 51.99298 9.76232 36347 ft 482 kts 196°
2026-04-22 17:17 51.92909 9.72916 36345 ft 482 kts 196°
2026-04-22 17:17 51.86516 9.69612 36351 ft 482 kts 196°
2026-04-22 17:18 51.81202 9.66876 36346 ft 483 kts 196°
2026-04-22 17:18 51.74803 9.63581 36345 ft 483 kts 196°
2026-04-22 17:19 51.61991 9.57025 36348 ft 483 kts 197°
2026-04-22 17:20 51.49157 9.50495 36338 ft 484 kts 196°
2026-04-22 17:21 51.39516 9.45618 36343 ft 484 kts 196°
2026-04-22 17:22 51.29869 9.40764 36337 ft 485 kts 197°
2026-04-22 17:23 51.20205 9.35902 36341 ft 485 kts 196°
2026-04-22 17:23 51.10535 9.31083 36339 ft 486 kts 197°
2026-04-22 17:24 51.04081 9.27876 36338 ft 486 kts 197°
2026-04-22 17:24 50.97664 9.24681 36340 ft 486 kts 197°
2026-04-22 17:25 50.91204 9.21474 36328 ft 487 kts 197°
2026-04-22 17:25 50.84733 9.18295 36330 ft 487 kts 197°
2026-04-22 17:26 50.78259 9.15123 36327 ft 487 kts 197°
2026-04-22 17:26 50.71786 9.11942 36329 ft 487 kts 197°
2026-04-22 17:27 50.65310 9.08768 36331 ft 487 kts 197°
2026-04-22 17:27 50.58829 9.05605 36326 ft 487 kts 197°
2026-04-22 17:28 50.52348 9.02451 36329 ft 487 kts 197°
2026-04-22 17:28 50.45867 8.99318 36325 ft 488 kts 197°
2026-04-22 17:29 50.39375 8.96183 36322 ft 488 kts 197°
2026-04-22 17:29 50.32889 8.93042 36317 ft 488 kts 197°
2026-04-22 17:30 50.26395 8.89915 36317 ft 488 kts 197°
2026-04-22 17:30 50.19891 8.86803 36313 ft 489 kts 197°
2026-04-22 17:31 50.13388 8.83709 36313 ft 489 kts 197°
2026-04-22 17:31 50.06873 8.80627 36315 ft 489 kts 195°
2026-04-22 17:32 50.00171 8.78868 36313 ft 489 kts 187°
2026-04-22 17:32 49.93422 8.77471 36311 ft 489 kts 187°
2026-04-22 17:33 49.86677 8.76088 36302 ft 489 kts 187°
2026-04-22 17:33 49.80009 8.74716 36301 ft 490 kts 187°
2026-04-22 17:34 49.73254 8.73310 36296 ft 490 kts 187°
2026-04-22 17:34 49.66497 8.71915 36292 ft 490 kts 187°
2026-04-22 17:35 49.59736 8.70555 36291 ft 490 kts 187°
2026-04-22 17:35 49.52967 8.69210 36292 ft 490 kts 187°
2026-04-22 17:36 49.46197 8.67850 36292 ft 491 kts 187°
2026-04-22 17:36 49.39430 8.66480 36288 ft 490 kts 187°
2026-04-22 17:37 49.32673 8.65109 36289 ft 490 kts 188°
2026-04-22 17:37 49.25905 8.63737 36288 ft 490 kts 187°
2026-04-22 17:38 49.19152 8.62381 36284 ft 489 kts 188°
2026-04-22 17:38 49.12401 8.61039 36282 ft 489 kts 188°
2026-04-22 17:39 49.05665 8.59692 36274 ft 488 kts 188°
2026-04-22 17:40 48.95578 8.57477 36262 ft 488 kts 192°
2026-04-22 17:40 48.88934 8.55298 36261 ft 488 kts 194°
2026-04-22 17:41 48.82335 8.52936 36260 ft 487 kts 194°
2026-04-22 17:41 48.75709 8.50719 36254 ft 487 kts 193°
2026-04-22 17:42 48.69069 8.48633 36252 ft 487 kts 193°
2026-04-22 17:42 48.62421 8.46545 36250 ft 488 kts 193°
2026-04-22 17:43 48.55789 8.44425 36244 ft 488 kts 193°
2026-04-22 17:43 48.49144 8.42298 36248 ft 488 kts 193°
2026-04-22 17:44 48.42499 8.40175 36256 ft 488 kts 193°
2026-04-22 17:44 48.35848 8.38058 36259 ft 489 kts 193°
2026-04-22 17:45 48.29194 8.35955 36253 ft 489 kts 194°
2026-04-22 17:45 48.22531 8.33860 36255 ft 489 kts 194°
2026-04-22 17:46 48.15767 8.32717 36255 ft 492 kts 179°
2026-04-22 17:46 48.08976 8.34058 36242 ft 493 kts 172°
2026-04-22 17:47 48.02198 8.35717 36242 ft 494 kts 172°
2026-04-22 17:47 47.95421 8.37354 36241 ft 494 kts 172°
2026-04-22 17:48 47.89733 8.38714 36229 ft 494 kts 172°
2026-04-22 17:48 47.81839 8.40603 36227 ft 495 kts 172°
2026-04-22 17:49 47.75043 8.42229 36232 ft 495 kts 172°
2026-04-22 17:49 47.68187 8.43860 36234 ft 495 kts 173°
2026-04-22 17:50 47.61344 8.45059 36226 ft 495 kts 176°
2026-04-22 17:50 47.54480 8.45913 36223 ft 495 kts 177°
2026-04-22 17:51 47.47613 8.46788 36212 ft 496 kts 176°
2026-04-22 17:51 47.40743 8.47794 36216 ft 496 kts 176°
2026-04-22 17:52 47.33869 8.48843 36222 ft 497 kts 176°
2026-04-22 17:52 47.26989 8.49862 36208 ft 497 kts 177°
2026-04-22 17:53 47.20111 8.50854 36207 ft 497 kts 177°
2026-04-22 17:53 47.13229 8.51845 36200 ft 497 kts 177°
2026-04-22 17:54 47.06343 8.52852 36170 ft 497 kts 177°
2026-04-22 17:54 46.99454 8.53857 36166 ft 498 kts 177°
2026-04-22 17:55 46.93719 8.54691 36169 ft 498 kts 177°
2026-04-22 17:55 46.85657 8.55838 36145 ft 498 kts 178°
2026-04-22 17:56 46.78751 8.56825 36134 ft 499 kts 178°
2026-04-22 17:56 46.71839 8.57810 36160 ft 499 kts 177°
2026-04-22 17:57 46.64931 8.58805 36154 ft 499 kts 177°
2026-04-22 17:57 46.59184 8.59629 36136 ft 500 kts 178°
2026-04-22 17:58 46.52253 8.60610 36141 ft 501 kts 178°
2026-04-22 17:58 46.45319 8.61592 36136 ft 501 kts 178°
2026-04-22 17:59 46.38375 8.62581 36145 ft 502 kts 178°
2026-04-22 17:59 46.31421 8.63558 36166 ft 502 kts 178°
2026-04-22 18:00 46.24473 8.64524 36162 ft 502 kts 178°
2026-04-22 18:00 46.17509 8.65492 36139 ft 503 kts 178°
2026-04-22 18:01 46.10545 8.66228 36136 ft 498 kts 185°
2026-04-22 18:01 46.03716 8.65102 36137 ft 495 kts 194°
2026-04-22 18:02 45.96885 8.63704 36150 ft 497 kts 193°
2026-04-22 18:02 45.90037 8.62317 36166 ft 497 kts 193°
2026-04-22 18:03 45.83180 8.60924 36148 ft 498 kts 193°
2026-04-22 18:03 45.76323 8.59527 36168 ft 498 kts 193°
2026-04-22 18:04 45.69469 8.58136 36175 ft 498 kts 193°
2026-04-22 18:04 45.62611 8.56756 36168 ft 497 kts 194°
2026-04-22 18:05 45.55880 8.55405 36176 ft 497 kts 194°
2026-04-22 18:05 45.49032 8.54029 36180 ft 497 kts 194°
2026-04-22 18:06 45.42224 8.52660 36164 ft 497 kts 194°
2026-04-22 18:06 45.35370 8.51289 36173 ft 497 kts 194°
2026-04-22 18:07 45.28518 8.49928 36181 ft 497 kts 194°
2026-04-22 18:07 45.21666 8.48565 36162 ft 497 kts 194°
2026-04-22 18:08 45.14822 8.47206 36177 ft 496 kts 194°
2026-04-22 18:08 45.07988 8.45845 36206 ft 496 kts 194°
2026-04-22 18:09 45.01161 8.44493 36185 ft 495 kts 194°
2026-04-22 18:09 44.94335 8.43163 36182 ft 495 kts 194°
2026-04-22 18:10 44.87522 8.41826 36162 ft 494 kts 194°
2026-04-22 18:10 44.80717 8.40488 36182 ft 493 kts 194°
2026-04-22 18:11 44.73930 8.39155 36189 ft 492 kts 194°
2026-04-22 18:11 44.67139 8.37836 36175 ft 492 kts 194°
2026-04-22 18:12 44.60364 8.36519 36186 ft 491 kts 194°
2026-04-22 18:12 44.54739 8.35429 36189 ft 491 kts 194°
2026-04-22 18:13 44.46829 8.33889 36173 ft 490 kts 194°
2026-04-22 18:13 44.43452 8.33231 35840 ft 489 kts 194°
2026-04-22 18:13 44.40065 8.32569 34895 ft 494 kts 194°
2026-04-22 18:13 44.36713 8.31645 33995 ft 488 kts 203°
2026-04-22 18:14 44.33541 8.30054 32964 ft 480 kts 212°
2026-04-22 18:14 44.30649 8.27854 32071 ft 469 kts 220°
2026-04-22 18:14 44.28071 8.25145 31205 ft 459 kts 229°
2026-04-22 18:14 44.25838 8.22011 30240 ft 452 kts 236°
2026-04-22 18:15 44.23994 8.18570 29184 ft 446 kts 242°
2026-04-22 18:15 44.22248 8.15012 28209 ft 444 kts 242°
2026-04-22 18:15 44.20489 8.11465 27098 ft 446 kts 242°
2026-04-22 18:15 44.18713 8.07905 25916 ft 449 kts 241°
2026-04-22 18:16 44.16921 8.04322 24800 ft 451 kts 241°
2026-04-22 18:16 44.15125 8.00736 23729 ft 452 kts 241°
2026-04-22 18:16 44.13332 7.97164 22775 ft 447 kts 241°
2026-04-22 18:16 44.11564 7.93649 21893 ft 439 kts 241°
2026-04-22 18:17 44.09822 7.90185 21008 ft 435 kts 241°
2026-04-22 18:17 44.08096 7.86752 20127 ft 431 kts 241°
2026-04-22 18:17 44.06386 7.83350 19267 ft 428 kts 241°
2026-04-22 18:17 44.04687 7.79966 18409 ft 425 kts 241°
2026-04-22 18:18 44.03002 7.76615 17474 ft 420 kts 240°
2026-04-22 18:18 44.01343 7.73317 16772 ft 412 kts 240°
2026-04-22 18:18 43.99697 7.70041 16526 ft 416 kts 240°
2026-04-22 18:18 43.98041 7.66738 16269 ft 417 kts 240°
2026-04-22 18:19 43.96388 7.63442 15989 ft 417 kts 240°
2026-04-22 18:19 43.94721 7.60131 15742 ft 418 kts 239°
2026-04-22 18:19 43.93048 7.56826 15479 ft 419 kts 239°
2026-04-22 18:19 43.91372 7.53522 15233 ft 418 kts 239°
2026-04-22 18:20 43.89698 7.50232 14977 ft 417 kts 239°
2026-04-22 18:20 43.87918 7.47046 14729 ft 421 kts 230°
2026-04-22 18:20 43.85558 7.44599 14487 ft 430 kts 211°
2026-04-22 18:20 43.82687 7.43298 14245 ft 438 kts 191°
2026-04-22 18:21 43.79643 7.43388 13998 ft 444 kts 170°
2026-04-22 18:21 43.76747 7.44878 13734 ft 446 kts 150°
2026-04-22 18:21 43.74263 7.47419 13555 ft 444 kts 140°
2026-04-22 18:21 43.71865 7.50105 13316 ft 442 kts 140°
2026-04-22 18:22 43.69661 7.53039 13033 ft 438 kts 130°
2026-04-22 18:22 43.67871 7.56411 12757 ft 434 kts 119°
2026-04-22 18:22 43.66528 7.60104 12503 ft 428 kts 109°
2026-04-22 18:22 43.65531 7.63948 12257 ft 423 kts 107°
2026-04-22 18:23 43.64554 7.67772 12004 ft 421 kts 107°
2026-04-22 18:23 43.63576 7.71568 11749 ft 418 kts 107°
2026-04-22 18:23 43.62606 7.75309 11519 ft 407 kts 108°
2026-04-22 18:24 43.60785 7.82312 11265 ft 369 kts 107°
2026-04-22 18:24 43.59938 7.85577 11141 ft 354 kts 107°
2026-04-22 18:24 43.58344 7.91727 10895 ft 328 kts 107°
2026-04-22 18:25 43.57587 7.94638 10721 ft 315 kts 107°
2026-04-22 18:25 43.56858 7.97437 10256 ft 306 kts 107°
2026-04-22 18:25 43.56143 8.00188 10005 ft 302 kts 107°
2026-04-22 18:26 43.54390 8.05333 9737 ft 300 kts 131°
2026-04-22 18:26 43.52720 8.07030 9604 ft 301 kts 155°
2026-04-22 18:26 43.50690 8.07673 9519 ft 301 kts 180°
2026-04-22 18:26 43.48643 8.07177 9367 ft 300 kts 204°
2026-04-22 18:27 43.46912 8.05655 9181 ft 295 kts 223°
2026-04-22 18:27 43.45374 8.03780 8992 ft 296 kts 224°
2026-04-22 18:27 43.43830 8.01904 8804 ft 296 kts 223°
2026-04-22 18:27 43.42284 8.00034 8613 ft 296 kts 223°
2026-04-22 18:28 43.40758 7.98195 8429 ft 296 kts 222°
2026-04-22 18:28 43.39311 7.96203 8229 ft 292 kts 237°
2026-04-22 18:28 43.38478 7.93704 8056 ft 287 kts 261°
2026-04-22 18:28 43.38403 7.91016 7883 ft 280 kts 284°
2026-04-22 18:29 43.39045 7.88531 7727 ft 275 kts 303°
2026-04-22 18:29 43.39999 7.86251 7566 ft 276 kts 303°
2026-04-22 18:29 43.40951 7.83952 7406 ft 277 kts 303°
2026-04-22 18:29 43.41766 7.81549 7243 ft 280 kts 290°
2026-04-22 18:30 43.42131 7.79798 7145 ft 282 kts 289°
2026-04-22 18:30 43.43389 7.73783 6790 ft 282 kts 290°
2026-04-22 18:30 43.43935 7.71189 6639 ft 282 kts 289°
2026-04-22 18:31 43.44481 7.68595 6488 ft 282 kts 289°
2026-04-22 18:31 43.45027 7.66000 6329 ft 282 kts 289°
2026-04-22 18:31 43.45572 7.63406 6162 ft 282 kts 289°
2026-04-22 18:31 43.46116 7.60805 6015 ft 283 kts 289°
2026-04-22 18:32 43.46658 7.58202 5868 ft 283 kts 288°
2026-04-22 18:32 43.47191 7.55602 5716 ft 282 kts 285°
2026-04-22 18:32 43.47387 7.52912 5563 ft 284 kts 268°
2026-04-22 18:32 43.47061 7.50223 5362 ft 285 kts 257°
2026-04-22 18:33 43.46610 7.47554 5132 ft 286 kts 257°
2026-04-22 18:33 43.46163 7.44880 4967 ft 288 kts 257°
2026-04-22 18:33 43.45716 7.42185 4803 ft 289 kts 257°
2026-04-22 18:33 43.45270 7.39494 4645 ft 288 kts 257°
2026-04-22 18:34 43.44821 7.36807 4491 ft 288 kts 257°
2026-04-22 18:34 43.44374 7.34124 4336 ft 287 kts 257°
2026-04-22 18:34 43.43928 7.31453 4184 ft 286 kts 257°
2026-04-22 18:34 43.43482 7.28794 4026 ft 282 kts 257°
2026-04-22 18:35 43.43047 7.26216 3915 ft 272 kts 257°
2026-04-22 18:35 43.42831 7.23687 3795 ft 261 kts 276°
2026-04-22 18:35 43.43279 7.21346 3681 ft 247 kts 300°
2026-04-22 18:35 43.44236 7.19487 3573 ft 232 kts 316°
2026-04-22 18:36 43.45287 7.17863 3465 ft 222 kts 319°
2026-04-22 18:36 43.46468 7.16670 3402 ft 201 kts 342°
2026-04-22 18:36 43.47737 7.16196 3265 ft 186 kts
2026-04-22 18:36 43.49023 7.16083 3162 ft 185 kts
2026-04-22 18:37 43.50308 7.15963 3064 ft 186 kts
2026-04-22 18:37 43.51603 7.15842 2940 ft 187 kts
2026-04-22 18:37 43.52480 7.15759 2755 ft 186 kts
2026-04-22 18:37 43.54179 7.15595 2403 ft 184 kts
2026-04-22 18:38 43.55455 7.15470 2142 ft 183 kts 360°
2026-04-22 18:38 43.56728 7.15343 1906 ft 179 kts 359°
2026-04-22 18:38 43.57919 7.15214 1653 ft 166 kts 359°
2026-04-22 18:39 43.60017 7.14952 1370 ft 144 kts 359°
2026-04-22 18:39 43.60994 7.15000 1201 ft 142 kts
2026-04-22 18:39 43.61864 7.15645 1025 ft 144 kts 39°
2026-04-22 18:39 43.62521 7.16706 868 ft 147 kts 47°
2026-04-22 18:40 43.63222 7.17703 616 ft 143 kts 42°
2026-04-22 18:40 43.63925 7.18666 460 ft 142 kts 43°
2026-04-22 18:40 43.64619 7.19626 225 ft 141 kts 44°
2026-04-22 18:40 43.65294 7.20558 44 ft 139 kts 43°
2026-04-22 18:41 43.65849 7.21312 21 ft 100 kts 45°
2026-04-22 18:41 43.66209 7.21817 21 ft 41 kts 45°
2026-04-22 18:41 43.66405 7.22004 24 ft 30 kts 24°
2026-04-22 18:41 43.66508 7.22055 23 ft 9 kts
2026-04-22 18:42 43.66536 7.22045 22 ft 0 kts 318°
2026-04-22 18:42 43.66536 7.22044 22 ft 1 kts 318°
2026-04-22 18:42 43.66547 7.22031 21 ft 4 kts 318°
2026-04-22 18:42 43.66577 7.21994 21 ft 7 kts 317°
2026-04-22 18:43 43.66622 7.21932 21 ft 11 kts 313°
2026-04-22 18:43 43.66643 7.21862 21 ft 13 kts 264°
2026-04-22 18:43 43.66579 7.21769 21 ft 15 kts 226°
2026-04-22 18:43 43.66496 7.21650 21 ft 19 kts 225°
2026-04-22 18:44 43.66397 7.21513 21 ft 22 kts 225°
2026-04-22 18:44 43.66291 7.21355 21 ft 24 kts 227°
2026-04-22 18:44 43.66164 7.21179 21 ft 27 kts 225°
2026-04-22 18:44 43.66058 7.21033 21 ft 18 kts 225°
2026-04-22 18:45 43.65997 7.20948 21 ft 9 kts 225°
2026-04-22 18:45 43.65967 7.20866 21 ft 10 kts 276°
2026-04-22 18:45 43.66028 7.20808 21 ft 12 kts 352°
2026-04-22 18:45 43.66088 7.20770 22 ft 9 kts 290°
2026-04-22 18:46 43.66079 7.20701 21 ft 0 kts 261°